Location: Bishop�s Knoyle
(51.0728°N, 2.1714°W)
Time: 15:10:43
(UTC+00:00)

Cosmos 2278 Rocket - Pass Details

Date: 18 September 2020
Orbit: 841 x 845 km, 71.0° (Epoch: 27 October)

Event Time Altitude Azimuth Distance (km) Brightness Sun altitude
Exits shadow 21:22:13 16° 49° (NE) 2,072 4.1 -27.5°
Drops below altitude 10° 21:23:24 10° 42° (NE) 2,470 4.6 -27.6°
Sets 21:26:00 0° 35° (NE) 3,409 5.5 -27.9°
